{"data":{"norad_id":57381,"epoch":"2026-05-25T00:50:42.277056Z","epoch_age_seconds":65322,"freshness":"FRESH","line1":"1 57381U 23099BF  26145.03521154  .00001254  00000+0  55072-4 0  9990","line2":"2 57381  43.0026 152.5308 0001036 285.7346  74.3392 15.27581229158824","mean_motion":15.27581229,"eccentricity":0.0001036,"inclination_deg":43.0026,"raan_deg":152.5308,"arg_perigee_deg":285.7346,"mean_anomaly_deg":74.3392,"bstar":5.5072e-5,"rev_number":15882,"period_min":94.266672872294,"perigee_km":482.3345974757,"apogee_km":483.75623447229,"semimajor_km":6861.182415974,"source":"CELESTRAK","updated_at":"2026-05-25T13:38:18.297250Z"}}